Regional Weather Roundup
Issued by NWS New Orleans/Baton Rouge, LA

Home | Current Version | Previous Version | Graphics & Text | Print | Product List | Glossary Off
Versions: 1 2 3 4 5 6 7 8 9 10 11 12 13 14 15 16 17 18 19 20 21 22 23 24 25 26 27 28 29 30 31 32 33 34 35 36 37 38 39 40 41 42 43 44 45 46 47 48 49 50

186
ASUS44 KLIX 201310
RWRLIX
NEW ORLEANS REGIONAL WEATHER ROUNDUP
NATIONAL WEATHER SERVICE NEW ORLEANS LA
800 AM CDT MON OCT 20 2014

NOTE: "FAIR" INDICATES FEW OR NO CLOUDS BELOW 12,000 FEET WITH NO
      SIGNIFICANT WEATHER AND/OR OBSTRUCTIONS TO VISIBILITY.
      SKY/WX - SKY CONDITION AND SIGNIFICANT WEATHER.
      TMP - AIR TEMPERATURE.     DP    - DEWPOINT TEMPERATURE.
      RH  - RELATIVE HUMIDITY.   PRES  - PRESSURE.
      HI  - HEAT INDEX.          WCI   - WIND CHILL INDEX.

*  THESE STATIONS ARE NOT NWS OR FAA STATIONS AND ARE NOT UNDER
   NWS QUALITY CONTROL.

LAZ038-040-048-061>063-065>067-069-201400-
SOUTHEAST LOUISIANA

CITY           SKY/WX    TMP DP  RH WIND       PRES   REMARKS
N.O. AUDUBON     N/A     64  59  83 MISG        N/A
N.O. INTL ARPT MOSUNNY   62  57  83 NE3       30.05R
N.O. LAKEFRONT SUNNY     67  59  75 E8        30.06R
N.O. DOWNTOWN*   N/A     66  54  63 NE7       30.05R
SLIDELL        SUNNY     52  48  86 N6        30.05R
BATON ROUGE    CLEAR     54  49  83 N3        30.06R
BOOTHVILLE     SUNNY     71  64  78 CALM      30.03S
BELLE CHASSE   MOSUNNY   59  56  89 CALM      30.04R
BOGALUSA*        N/A     49  46  89 CALM      30.09R
NEW ROADS*       N/A     52  52  98 CALM      30.07R
GONZALES*        N/A     54  54 100 CALM      30.05R
HAMMOND*       SUNNY     54  48  82 CALM      30.08R
HOUMA*         MOSUNNY   61  61 100 NE7       30.02S
PORT FOURCHON* SUNNY     72  63  73 NE7       30.06R

$$

MSZ070-080>082-201400-
SOUTHERN MISSISSIPPI

CITY           SKY/WX    TMP DP  RH WIND       PRES   REMARKS
MCCOMB         CLEAR     52  48  86 CALM      30.08R
GULFPORT       SUNNY     55  49  80 N5        30.06R
BILOXI         SUNNY     55  50  83 NE6       30.06R
PASCAGOULA     SUNNY     52  49  89 N3        30.06R
STENNIS ARPT*  SUNNY     54  48  82 CALM      30.06R

$$

COASTAL OBSERVATIONS
LAKE AND NEARSHORE STATIONS

STATION/POSITION TIME  TEMP    WIND        PRES    WAVE
                       AIR SEA DIR/SP/G            HT/PER
                 (UTC) (F)     (DEG/KT/KT) (MB)    (FT/S)
PASCAGOULA       1300   56      20/  6/  7 1017.1
WAVELAND YACHT   1300   60      30/  6/  7 1016.9
GRAND ISLE       1300   71 78   50/  5/  9 1017.2
SOUTHWEST PASS   1300   78 84              1016.6
NEW CANAL        1300   66 72   80/  3/  5 1017.8
SHELL BEACH      1300   69 69   40/ 10/ 11 1017.2

OFFSHORE STATIONS

STATION/POSITION TIME  TEMP    WIND        PRES    WAVE
                       AIR SEA DIR/SP/G            HT/PER
                 (UTC) (F)     (DEG/KT/KT) (MB)    (FT/S)
64 S DAUPHIN ISL 1217   74 79  100/  8/ 10 1017.2    2/ 6

$$




USA.gov is the U.S. government's official web portal to all federal, state and local government web resources and services.